Location: Unspecified
(0.0000°N, 0.0000°E)
Time: 16:22:47
(UTC+00:00)

Vanguard 1 - Pass Details

Date: 22 November 2019
Orbit: 651 x 3832 km, 34.3° (Epoch: 11 December)

Event Time Altitude Azimuth Distance (km) Brightness Sun altitude
Rises 23:00:41 0° 227° (SW) 5,510 14.2 -66.9°
Reaches altitude 10° 23:06:57 10° 204° (SSW) 5,189 13.9 -67.6°
Maximum altitude 23:14:44 15° 174° (S) 5,497 14.0 -68.4°
Drops below altitude 10° 23:24:20 10° 146° (SE) 6,531 14.3 -69.1°
Sets 23:34:47 0° 125° (SE) 7,926 14.8 -69.6°
